Terug naar catalogus

METEOR 1-16 DEB

ActiefPO
NORAD 42999·DEBRIS·🇷🇺 Russia

Gelanceerd Mar 5, 1974 vanaf Plesetsk Cosmodrome

Loading…

Volgende Passages (komende 24 uur)

TLE

VersSource: Space-Track

Epoch: Sep 14, 2026, 17:12 UTC

1 42999U 74011C   26257.71680523  .00007074  00000-0  20057-2 0  9994
2 42999  81.2306 253.6165 0034492  20.1934 340.0611 14.45074787527707

Volg METEOR 1-16 DEB in realtime met AllMySat

Download on the App Store